H1 CPF 2 NER 2024 4 14 9 105 01 glonass144 H2 2207501 9144 52984 2024 4 14 0 0 0 2024 4 17 23 45 0 900 1 1 0 0 0 1 H9 10 0 60414 0.00000 0 7679907.537 7765012.521 -23028366.330 10 0 60414 900.00000 0 5579114.113 9676992.877 -22907542.752 10 0 60414 1800.00000 0 3652614.080 11706634.292 -22340699.970 10 0 60414 2700.00000 0 1941425.967 13797471.685 -21338833.684 10 0 60414 3600.00000 0 475515.067 15887448.178 -19921430.234 10 0 60414 4500.00000 0 -727239.382 17911384.553 -18116087.118 10 0 60414 5400.00000 0 -1661558.080 19803598.275 -15957973.046 10 0 60414 6300.00000 0 -2334736.036 21500561.981 -13489138.071 10 0 60414 7200.00000 0 -2766079.818 22943489.459 -10757687.497 10 0 60414 8100.00000 0 -2985832.982 24080740.045 -7816836.138 10 0 60414 9000.00000 0 -3033636.771 24869940.033 -4723862.057 10 0 60414 9900.00000 0 -2956593.005 25279731.643 -1538981.093 10 0 60414 10800.00000 0 -2807012.943 25291076.054 1675834.857 10 0 60414 11700.00000 0 -2639949.151 24898056.023 4858071.768 10 0 60414 12600.00000 0 -2510616.391 24108144.994 7945894.980 10 0 60414 13500.00000 0 -2471811.935 22941932.291 10879353.721 10 0 60414 14400.00000 0 -2571445.294 21432317.021 13601544.822 10 0 60414 15300.00000 0 -2850282.287 19623205.596 16059712.851 10 0 60414 16200.00000 0 -3339998.808 17567768.455 18206265.690 10 0 60414 17100.00000 0 -4061626.244 15326329.636 19999686.543 10 0 60414 18000.00000 0 -5024453.654 12963977.728 21405325.762 10 0 60414 18900.00000 0 -6225432.553 10547997.759 22396058.407 10 0 60414 19800.00000 0 -7649109.056 8145230.353 22952796.230 10 0 60414 20700.00000 0 -9268086.250 5819467.039 23064845.485 10 0 60414 21600.00000 0 -11043997.786 3628988.504 22730104.788 10 0 60414 22500.00000 0 -12928952.742 1624346.357 21955100.075 10 0 60414 23400.00000 0 -14867392.435 -153521.251 20754856.413 10 0 60414 24300.00000 0 -16798283.016 -1674763.689 19152609.210 10 0 60414 25200.00000 0 -18657553.892 -2921621.954 17179360.022 10 0 60414 26100.00000 0 -20380681.648 -3888922.439 14873284.824 10 0 60414 27000.00000 0 -21905313.046 -4584040.870 12279005.216 10 0 60414 27900.00000 0 -23173818.631 -5026338.706 9446735.507 10 0 60414 28800.00000 0 -24135670.922 -5246096.018 6431321.059 10 0 60414 29700.00000 0 -24749548.039 -5282985.811 3291185.429 10 0 60414 30600.00000 0 -24985074.494 -5184153.911 87205.816 10 0 60414 31500.00000 0 -24824125.623 -5001985.223 -3118461.964 10 0 60414 32400.00000 0 -24261640.021 -4791650.515 -6263586.566 10 0 60414 33300.00000 0 -23305904.662 -4608537.441 -9287068.982 10 0 60414 34200.00000 0 -21978299.366 -4505674.712 -12130131.521 10 0 60414 35100.00000 0 -20312509.938 -4531258.894 -14737464.454 10 0 60414 36000.00000 0 -18353241.609 -4726389.355 -17058307.551 10 0 60414 36900.00000 0 -16154485.518 -5123108.260 -19047444.877 10 0 60414 37800.00000 0 -13777409.903 -5742829.877 -20666092.938 10 0 60414 38700.00000 0 -11287963.497 -6595227.132 -21882664.322 10 0 60414 39600.00000 0 -8754290.880 -7677624.087 -22673391.409 10 0 60414 40500.00000 0 -6244067.564 -8974921.676 -23022797.507 10 0 60414 41400.00000 0 -3821865.933 -10460061.477 -22924005.756 10 0 60414 42300.00000 0 -1546662.083 -12095009.457 -22378879.302 10 0 60414 43200.00000 0 530412.412 -13832219.508 -21397989.596 10 0 60414 44100.00000 0 2367980.012 -15616516.165 -20000413.045 10 0 60414 45000.00000 0 3935908.453 -17387317.828 -18213359.675 10 0 60414 45900.00000 0 5216321.907 -19081107.263 -16071640.910 10 0 60414 46800.00000 0 6204090.555 -20634045.342 -13616986.800 10 0 60414 47700.00000 0 6906779.215 -21984617.687 -10897226.283 10 0 60414 48600.00000 0 7344058.712 -23076202.325 -7965346.892 10 0 60414 49500.00000 0 7546606.570 -23859449.717 -4878452.943 10 0 60414 50400.00000 0 7554545.303 -24294374.434 -1696643.406 10 0 60414 51300.00000 0 7415486.306 -24352070.123 1518167.641 10 0 60414 52200.00000 0 7182263.974 -24015975.515 4703463.970 10 0 60414 53100.00000 0 6910457.645 -23282638.431 7797348.926 10 0 60414 54000.00000 0 6655807.693 -22161946.213 10739751.391 10 0 60414 54900.00000 0 6471636.115 -20676813.626 13473592.045 10 0 60414 55800.00000 0 6406381.338 -18862342.203 15945887.149 10 0 60414 56700.00000 0 6501351.572 -16764487.061 18108768.715 10 0 60414 57600.00000 0 6788791.350 -14438287.635 19920402.000 10 0 60414 58500.00000 0 7290342.330 -11945736.575 21345783.559 10 0 60414 59400.00000 0 8015962.541 -9353375.618 22357405.673 10 0 60414 60300.00000 0 8963349.003 -6729718.015 22935775.698 10 0 60414 61200.00000 0 10117887.556 -4142603.746 23069781.608 10 0 60414 62100.00000 0 11453131.945 -1656596.025 22756897.821 10 0 60414 63000.00000 0 12931792.406 669474.515 22003228.206 10 0 60414 63900.00000 0 14507193.033 2784717.848 20823385.907 10 0 60414 64800.00000 0 16125138.032 4648055.026 19240212.353 10 0 60414 65700.00000 0 17726110.081 6229675.181 17284340.562 10 0 60414 66600.00000 0 19247710.246 7512020.023 14993610.422 10 0 60414 67500.00000 0 20627238.783 8490256.130 12412346.343 10 0 60414 68400.00000 0 21804309.965 9172216.283 9590510.058 10 0 60414 69300.00000 0 22723392.308 9577812.890 6582743.866 10 0 60414 70200.00000 0 23336168.170 9737948.440 3447321.773 10 0 60414 71100.00000 0 23603613.766 9692968.807 245027.938 10 0 60414 72000.00000 0 23497711.806 9490724.434 -2962016.420 10 0 60414 72900.00000 0 23002723.962 9184321.034 -6111555.288 10 0 60414 73800.00000 0 22115968.430 8829654.679 -9142406.023 10 0 60414 74700.00000 0 20848068.442 8482835.547 -11995649.807 10 0 60414 75600.00000 0 19222659.650 8197609.549 -14615780.879 10 0 60414 76500.00000 0 17275566.981 8022887.418 -16951791.757 10 0 60414 77400.00000 0 15053483.954 8000486.591 -18958172.764 10 0 60414 78300.00000 0 12612208.400 8163182.365 -20595805.816 10 0 60414 79200.00000 0 10014507.289 8533151.937 -21832734.556 10 0 60414 80100.00000 0 7327699.079 9120878.388 -22644795.241 10 0 60414 81000.00000 0 4621054.024 9924562.281 -23016095.611 10 0 60414 81900.00000 0 1963120.537 10930067.108 -22939331.923 10 0 60414 82800.00000 0 -580910.948 12111402.128 -22415937.511 10 0 60414 83700.00000 0 -2951696.782 13431723.363 -21456059.545 10 0 60414 84600.00000 0 -5097977.826 14844811.429 -20078364.070 10 0 60414 85500.00000 0 -6978472.828 16296964.444 -18309672.810 10 0 60415 0.00000 0 -8563348.641 17729226.403 -16184438.862 10 0 60415 900.00000 0 -9835207.205 19079857.743 -13744070.285 10 0 60415 1800.00000 0 -10789546.876 20286941.697 -11036117.887 10 0 60415 2700.00000 0 -11434682.885 21291018.517 -8113339.735 10 0 60415 3600.00000 0 -11791129.726 22037633.896 -5032664.001 10 0 60415 4500.00000 0 -11890474.268 22479694.149 -1854070.248 10 0 60415 5400.00000 0 -11773788.979 22579528.191 1360587.898 10 0 60415 6300.00000 0 -11489654.309 22310568.971 4548794.688 10 0 60415 7200.00000 0 -11091875.723 21658583.437 7648594.178 10 0 60415 8100.00000 0 -10636993.551 20622399.415 10599797.578 10 0 60415 9000.00000 0 -10181692.237 19214099.269 13345152.059 10 0 60415 9900.00000 0 -9780219.304 17458672.760 15831448.125 10 0 60415 10800.00000 0 -9481923.410 15393144.318 18010544.363 10 0 60415 11700.00000 0 -9329015.290 13065211.726 19840290.379 10 0 60415 12600.00000 0 -9354645.466 10531453.440 21285331.039 10 0 60415 13500.00000 0 -9581378.949 7855179.239 22317777.723 10 0 60415 14400.00000 0 -10020130.231 5104013.231 22917734.975 10 0 60415 15300.00000 0 -10669602.552 2347308.872 23073673.727 10 0 60415 16200.00000 0 -11516254.418 -346497.969 22782645.023 10 0 60415 17100.00000 0 -12534794.577 -2912489.675 22050331.024 10 0 60415 18000.00000 0 -13689184.888 -5291715.165 20890932.781 10 0 60415 18900.00000 0 -14934109.653 -7433386.142 19326897.048 10 0 60415 19800.00000 0 -16216850.802 -9296732.014 17388487.042 10 0 60415 20700.00000 0 -17479491.525 -10852437.997 15113204.791 10 0 60415 21600.00000 0 -18661357.230 -12083608.033 12545075.252 10 0 60415 22500.00000 0 -19701592.701 -12986213.405 9733804.912 10 0 60415 23400.00000 0 -20541768.211 -13569009.083 6733830.020 10 0 60415 24300.00000 0 -21128405.833 -13852921.691 3603271.805 10 0 60415 25200.00000 0 -21415319.943 -13869934.929 402817.999 10 0 60415 26100.00000 0 -21365673.242 -13661519.239 -2805448.251 10 0 60415 27000.00000 0 -20953661.020 -13276671.714 -5959249.760 10 0 60415 27900.00000 0 -20165751.670 -12769648.711 -8997323.733 10 0 60415 28800.00000 0 -19001429.694 -12197486.858 -11860613.621 10 0 60415 29700.00000 0 -17473408.256 -11617417.254 -14493420.878 10 0 60415 30600.00000 0 -15607300.446 -11084282.428 -16844493.796 10 0 60415 31500.00000 0 -13440761.221 -10648065.741 -18868031.630 10 0 60415 32400.00000 0 -11022134.287 -10351638.352 -20524583.958 10 0 60415 33300.00000 0 -8408659.017 -10228819.820 -21781827.180 10 0 60415 34200.00000 0 -5664311.209 -10302835.248 -22615202.509 10 0 60415 35100.00000 0 -2857366.898 -10585235.170 -23008402.541 10 0 60415 36000.00000 0 -57790.248 -11075324.854 -22953696.423 10 0 60415 36900.00000 0 2665445.911 -11760128.064 -22452086.830 10 0 60415 37800.00000 0 5246995.418 -12614887.697 -21513295.263 10 0 60415 38700.00000 0 7627620.187 -13604082.846 -20155575.537 10 0 60415 39600.00000 0 9756414.295 -14682919.772 -18405358.804 10 0 60415 40500.00000 0 11592678.085 -15799234.041 -16296736.829 10 0 60415 41400.00000 0 13107364.409 -16895723.382 -13870793.554 10 0 60415 42300.00000 0 14284037.142 -17912416.562 -11174798.200 10 0 60415 43200.00000 0 15119302.847 -18789273.377 -8261276.067 10 0 60415 44100.00000 0 15622698.839 -19468805.161 -5186975.785 10 0 60415 45000.00000 0 15816044.053 -19898604.246 -2011754.065 10 0 60415 45900.00000 0 15732281.950 -20033674.806 1202599.301 10 0 60415 46800.00000 0 15413866.308 -19838466.011 4393572.285 10 0 60415 47700.00000 0 14910759.989 -19288521.330 7499152.654 10 0 60415 48600.00000 0 14278133.040 -18371674.318 10459036.643 10 0 60415 49500.00000 0 13573858.809 -17088740.657 13215800.224 10 0 60415 50400.00000 0 12855914.892 -15453677.642 15716010.055 10 0 60415 51300.00000 0 12179799.145 -13493204.866 17911252.772 10 0 60415 52200.00000 0 11596069.780 -11245902.302 19759063.371 10 0 60415 53100.00000 0 11148112.746 -8760823.761 21223735.643 10 0 60415 54000.00000 0 10870229.580 -6095683.509 22277000.262 10 0 60415 54900.00000 0 10786125.042 -3314691.153 22898558.773 10 0 60415 55800.00000 0 10907857.021 -486124.059 23076464.506 10 0 60415 56700.00000 0 11235291.739 2320263.074 22807344.241 10 0 60415 57600.00000 0 11756086.403 5035885.545 22096457.246 10 0 60415 58500.00000 0 12446199.641 7595924.791 20957591.043 10 0 60415 59400.00000 0 13270908.370 9941767.560 19412796.043 10 0 60415 60300.00000 0 14186288.910 12023188.759 17491963.823 10 0 60415 61200.00000 0 15141100.987 13800188.992 15232256.548 10 0 60415 62100.00000 0 16078996.565 15244411.837 12677397.583 10 0 60415 63000.00000 0 16940961.812 16340082.980 9876835.913 10 0 60415 63900.00000 0 17667890.518 17084432.785 6884799.373 10 0 60415 64800.00000 0 18203181.476 17487585.093 3759253.970 10 0 60415 65700.00000 0 18495250.859 17571917.089 560788.519 10 0 60415 66600.00000 0 18499853.715 17370917.028 -2648554.390 10 0 60415 67500.00000 0 18182116.217 16927587.666 -5806478.821 10 0 60415 68400.00000 0 17518192.039 16292462.386 -8851644.119 10 0 60415 69300.00000 0 16496471.634 15521317.453 -11724858.113 10 0 60415 70200.00000 0 15118291.782 14672676.826 -14370231.362 10 0 60415 71100.00000 0 13398113.549 13805214.905 -16736269.574 10 0 60415 72000.00000 0 11363159.195 12975167.143 -18776882.364 10 0 60415 72900.00000 0 9052521.216 12233858.247 -20452288.166 10 0 60415 73800.00000 0 6515779.041 11625452.885 -21729797.148 10 0 60415 74700.00000 0 3811179.650 11185024.526 -22584456.316 10 0 60415 75600.00000 0 1003456.895 10937024.638 -22999543.759 10 0 60415 76500.00000 0 -1838620.479 10894217.544 -22966901.917 10 0 60415 77400.00000 0 -4644870.406 11057126.593 -22487102.932 10 0 60415 78300.00000 0 -7346379.788 11414015.548 -21569442.403 10 0 60415 79200.00000 0 -9878135.844 11941406.403 -20231761.305 10 0 60415 80100.00000 0 -12181496.847 12605111.982 -18500099.199 10 0 60415 81000.00000 0 -14206399.221 13361739.656 -16408185.317 10 0 60415 81900.00000 0 -15913209.019 14160602.406 -13996777.369 10 0 60415 82800.00000 0 -17274140.698 14945955.886 -11312861.166 10 0 60415 83700.00000 0 -18274184.501 15659466.167 -8408727.065 10 0 60415 84600.00000 0 -18911504.558 16242802.894 -5340941.860 10 0 60415 85500.00000 0 -19197292.363 16640247.171 -2169237.067 10 0 60416 0.00000 0 -19155083.463 16801202.917 1044663.453 10 0 60416 900.00000 0 -18819567.951 16682504.710 4238254.354 10 0 60416 1800.00000 0 -18234946.987 16250423.795 7349469.225 10 0 60416 2700.00000 0 -17452906.434 15482287.471 10317891.708 10 0 60416 3600.00000 0 -16530294.753 14367643.159 13085928.965 10 0 60416 4500.00000 0 -15526604.373 12908918.344 15599926.144 10 0 60416 5400.00000 0 -14501363.512 11121548.862 17811200.201 10 0 60416 6300.00000 0 -13511548.553 9033570.361 19676973.674 10 0 60416 7200.00000 0 -12609125.584 6684690.198 21161191.263 10 0 60416 8100.00000 0 -11838823.743 4124878.466 22235204.698 10 0 60416 9000.00000 0 -11236232.726 1412536.503 22878314.019 10 0 60416 9900.00000 0 -10826303.029 -1387681.629 23078156.128 10 0 60416 10800.00000 0 -10622310.461 -4207305.240 22830934.360 10 0 60416 11700.00000 0 -10625327.097 -6976641.040 22141485.510 10 0 60416 12600.00000 0 -10824219.987 -9627419.100 21023183.562 10 0 60416 13500.00000 0 -11196177.074 -12095382.835 19497682.128 10 0 60416 14400.00000 0 -11707738.189 -14322717.368 17594500.237 10 0 60416 15300.00000 0 -12316288.155 -16260217.123 15350458.833 10 0 60416 16200.00000 0 -12971949.881 -17869103.997 12808977.926 10 0 60416 17100.00000 0 -13619798.726 -19122421.618 10019246.865 10 0 60416 18000.00000 0 -14202305.815 -20005948.305 7035282.629 10 0 60416 18900.00000 0 -14661908.153 -20518591.058 3914893.314 10 0 60416 19800.00000 0 -14943597.745 -20672244.237 718565.927 10 0 60416 20700.00000 0 -14997420.631 -20491118.699 -2491700.546 10 0 60416 21600.00000 0 -14780780.078 -20010569.321 -5653594.583 10 0 60416 22500.00000 0 -14260445.989 -19275469.803 -8705700.927 10 0 60416 23400.00000 0 -13414184.484 -18338202.859 -11588695.082 10 0 60416 24300.00000 0 -12231937.343 -17256350.168 -14246499.991 10 0 60416 25200.00000 0 -10716499.707 -16090179.318 -16627381.954 10 0 60416 26100.00000 0 -8883665.399 -14900033.732 -18684963.909 10 0 60416 27000.00000 0 -6761831.638 -13743735.779 -20379135.790 10 0 60416 27900.00000 0 -4391077.621 -12674112.861 -21676843.750 10 0 60416 28800.00000 0 -1821753.703 -11736751.171 -22552742.278 10 0 60416 29700.00000 0 887361.442 -10968072.256 -22989696.066 10 0 60416 30600.00000 0 3671259.991 -10393813.868 -22979121.367 10 0 60416 31500.00000 0 6461169.599 -10027979.571 -22521159.711 10 0 60416 32400.00000 0 9187181.282 -9872301.642 -21624680.181 10 0 60416 33300.00000 0 11780931.289 -9916240.075 -20307109.790 10 0 60416 34200.00000 0 14178225.170 -10137517.680 -18594094.919 10 0 60416 35100.00000 0 16321494.515 -10503168.435 -16519000.234 10 0 60416 36000.00000 0 18161983.772 -10971054.289 -14122254.756 10 0 60416 36900.00000 0 19661575.766 -11491785.611 -11450558.027 10 0 60416 37800.00000 0 20794179.863 -12010963.079 -8555962.230 10 0 60416 38700.00000 0 21546625.216 -12471645.121 -5494848.787 10 0 60416 39600.00000 0 21919022.591 -12816935.258 -2326820.264 10 0 60416 40500.00000 0 21924580.872 -12992578.691 886469.826 10 0 60416 41400.00000 0 21588887.602 -12949457.179 4082525.468 10 0 60416 42300.00000 0 20948685.631 -12645875.819 7199230.261 10 0 60416 43200.00000 0 20050199.199 -12049544.426 10176058.581 10 0 60416 44100.00000 0 18947081.716 -11139169.508 12955251.687 10 0 60416 45000.00000 0 17698073.041 -9905589.604 15482935.659 10 0 60416 45900.00000 0 16364465.925 -8352406.259 17710159.723 10 0 60416 46800.00000 0 15007488.620 -6496084.244 19593835.392 10 0 60416 47700.00000 0 13685713.621 -4365516.933 21097559.233 10 0 60416 48600.00000 0 12452600.694 -2001074.957 22192304.518 10 0 60416 49500.00000 0 11354276.175 546822.527 22856969.824 10 0 60416 50400.00000 0 10427640.206 3219554.987 23078775.263 10 0 60416 51300.00000 0 9698879.624 5952490.319 22853499.964 10 0 60416 52200.00000 0 9182447.184 8677427.594 22185557.117 10 0 60416 53100.00000 0 8880548.492 11325192.941 21087905.706 10 0 60416 54000.00000 0 8783157.040 13828282.539 19581800.782 10 0 60416 54900.00000 0 8868556.034 16123444.829 17696386.793 10 0 60416 55800.00000 0 9104384.052 18154096.334 15468141.213 10 0 60416 56700.00000 0 9449140.746 19872472.136 12940178.258 10 0 60416 57600.00000 0 9854089.770 21241422.663 10161425.039 10 0 60416 58500.00000 0 10265479.454 22235782.641 7185684.963 10 0 60416 59400.00000 0 10626988.328 22843255.518 4070605.408 10 0 60416 60300.00000 0 10882292.871 23064776.407 876568.739 10 0 60416 61200.00000 0 10977649.379 22914338.166 -2334472.465 10 0 60416 62100.00000 0 10864380.783 22418287.475 -5500193.795 10 0 60416 63000.00000 0 10501162.874 21614119.986 -8559107.910 10 0 60416 63900.00000 0 9856012.335 20548824.619 -11451760.272 10 0 60416 64800.00000 0 8907891.289 19276846.225 -14121888.208 10 0 60416 65700.00000 0 7647858.871 17857751.958 -16517520.324 10 0 60416 66600.00000 0 6079719.286 16353699.401 -18591994.301 10 0 60416 67500.00000 0 4220136.923 14826812.963 -20304872.741 10 0 60416 68400.00000 0 2098211.458 13336579.050 -21622738.699 10 0 60416 69300.00000 0 -245471.275 11937369.805 -22519854.832 10 0 60416 70200.00000 0 -2760274.782 10676199.881 -22978672.891 10 0 60416 71100.00000 0 -5387375.295 9590810.822 -22990183.114 10 0 60416 72000.00000 0 -8061976.379 8708163.880 -22554096.276 10 0 60416 72900.00000 0 -10715783.128 8043404.766 -21678854.424 10 0 60416 73800.00000 0 -13279633.199 7599343.846 -20381469.674 10 0 60416 74700.00000 0 -15686174.989 7366473.431 -18687193.886 10 0 60416 75600.00000 0 -17872481.151 7323520.967 -16629025.440 10 0 60416 76500.00000 0 -19782488.093 7438514.030 -14247062.640 10 0 60416 77400.00000 0 -21369159.303 7670311.262 -11587716.496 10 0 60416 78300.00000 0 -22596281.936 7970533.361 -8702798.628 10 0 60416 79200.00000 0 -23439821.626 8285811.167 -5648502.636 10 0 60416 80100.00000 0 -23888779.177 8560254.303 -2484299.681 10 0 60416 81000.00000 0 -23945514.104 8738034.476 728229.210 10 0 60416 81900.00000 0 -23625522.605 8765972.787 3926600.328 10 0 60416 82800.00000 0 -22956680.847 8596020.403 7048649.360 10 0 60416 83700.00000 0 -21977987.014 8187526.821 10033743.734 10 0 60416 84600.00000 0 -20737856.714 7509199.288 12823961.078 10 0 60416 85500.00000 0 -19292044.905 6540670.383 15365210.606 10 0 60417 0.00000 0 -17701283.000 5273607.760 17608275.692 10 0 60417 900.00000 0 -16028730.197 3712318.719 19509759.137 10 0 60417 1800.00000 0 -14337348.300 1873826.060 21032910.821 10 0 60417 2700.00000 0 -12687306.803 -212590.207 22148326.962 10 0 60417 3600.00000 0 -11133528.063 -2506364.754 22834505.759 10 0 60417 4500.00000 0 -9723473.080 -4957093.005 23078251.294 10 0 60417 5400.00000 0 -8495258.936 -7506391.890 22874918.911 10 0 60417 6300.00000 0 -7476184.807 -10090099.088 22228498.288 10 0 60417 7200.00000 0 -6681726.442 -12640720.765 21151533.160 10 0 60417 8100.00000 0 -6115039.652 -15090027.768 19664879.425 10 0 60417 9000.00000 0 -5766992.380 -17371694.162 17797306.037 10 0 60417 9900.00000 0 -5616723.276 -19423870.046 15584945.756 10 0 60417 10800.00000 0 -5632702.945 -21191583.124 13070605.448 10 0 60417 11700.00000 0 -5774253.356 -22628870.183 10302948.171 10 0 60417 12600.00000 0 -5993461.769 -23700550.411 7335561.696 10 0 60417 13500.00000 0 -6237409.013 -24383566.888 4225930.426 10 0 60417 14400.00000 0 -6450618.625 -24667840.227 1034329.662 10 0 60417 15300.00000 0 -6577623.706 -24556598.248 -2177336.984 10 0 60417 16200.00000 0 -6565543.126 -24066167.356 -5346734.915 10 0 60417 17100.00000 0 -6366557.870 -23225233.642 -8412307.514 10 0 60417 18000.00000 0 -5940182.080 -22073603.990 -11314473.108 10 0 60417 18900.00000 0 -5255231.732 -20660518.522 -13996786.373 10 0 60417 19800.00000 0 -4291406.244 -19042584.712 -16407041.165 10 0 60417 20700.00000 0 -3040414.466 -17281419.527 -18498292.757 10 0 60417 21600.00000 0 -1506595.544 -15441098.413 -20229779.058 10 0 60417 22500.00000 0 292993.630 -13585518.146 -21567722.354 10 0 60417 23400.00000 0 2329030.192 -11775784.335 -22485995.415 10 0 60417 24300.00000 0 4560899.357 -10067733.338 -22966638.525 10 0 60417 25200.00000 0 6938151.717 -8509692.717 -23000216.895 10 0 60417 26100.00000 0 9402384.208 -7140574.345 -22586011.041 10 0 60417 27000.00000 0 11889467.191 -5988380.183 -21732035.979 10 0 60417 27900.00000 0 14332025.237 -5069183.340 -20454888.467 10 0 60417 28800.00000 0 16662068.251 -4386626.845 -18779424.914 10 0 60417 29700.00000 0 18813662.987 -3931960.637 -16738276.013 10 0 60417 30600.00000 0 20725533.021 -3684614.344 -14371207.464 10 0 60417 31500.00000 0 22343478.082 -3613280.587 -11724339.376 10 0 60417 32400.00000 0 23622511.129 -3677461.764 -8849239.960 10 0 60417 33300.00000 0 24528623.467 -3829413.438 -5801911.719 10 0 60417 34200.00000 0 25040103.951 -4016400.553 -2641690.809 10 0 60417 35100.00000 0 25148357.353 -4183169.362 569918.052 10 0 60417 36000.00000 0 24858188.290 -4274528.912 3770447.344 10 0 60417 36900.00000 0 24187539.905 -4237931.445 6897688.643 10 0 60417 37800.00000 0 23166699.638 -4025941.434 9890906.017 10 0 60417 38700.00000 0 21837006.930 -3598488.071 12692016.715 10 0 60417 39600.00000 0 20249118.558 -2924805.596 15246715.931 10 0 60417 40500.00000 0 18460905.640 -1984979.437 17505523.961 10 0 60417 41400.00000 0 16535071.304 -771033.073 19424736.015 10 0 60417 42300.00000 0 14536589.219 712489.934 20967257.196 10 0 60417 43200.00000 0 12530069.976 2448473.092 22103307.691 10 0 60417 44100.00000 0 10577164.640 4407705.572 22810985.914 10 0 60417 45000.00000 0 8734112.736 6549872.595 23076680.068 10 0 60417 45900.00000 0 7049535.332 8825016.874 22895321.435 10 0 60417 46800.00000 0 5562563.485 11175411.263 22270475.456 10 0 60417 47700.00000 0 4301378.193 13537765.884 21214269.471 10 0 60417 48600.00000 0 3282221.015 15845679.434 19747158.678 10 0 60417 49500.00000 0 2508915.068 18032234.360 17897534.612 10 0 60417 50400.00000 0 1972915.285 20032629.465 15701183.068 10 0 60417 51300.00000 0 1653884.963 21786741.833 13200601.049 10 0 60417 52200.00000 0 1520774.046 23241512.500 10444184.806 10 0 60417 53100.00000 0 1533353.753 24353057.110 7485303.556 10 0 60417 54000.00000 0 1644143.180 25088413.843 4381275.686 10 0 60417 54900.00000 0 1800646.948 25426855.480 1192266.331 10 0 60417 55800.00000 0 1947809.755 25360710.289 -2019872.964 10 0 60417 56700.00000 0 2030584.259 24895656.635 -5192800.419 10 0 60417 57600.00000 0 1996503.610 24050478.057 -8264892.986 10 0 60417 58500.00000 0 1798149.337 22856288.128 -11176444.461 10 0 60417 59400.00000 0 1395409.423 21355256.630 -13870829.181 10 0 60417 60300.00000 0 757429.861 19598889.625 -16295608.250 10 0 60417 61200.00000 0 -135824.277 17645934.896 -18403556.209 10 0 60417 62100.00000 0 -1292465.949 15560000.075 -20153587.643 10 0 60417 63000.00000 0 -2708089.922 13406982.982 -21511565.149 10 0 60417 63900.00000 0 -4365710.344 11252421.716 -22450972.404 10 0 60417 64800.00000 0 -6236236.740 9158875.479 -22953438.724 10 0 60417 65700.00000 0 -8279470.302 7183445.816 -23009104.473 10 0 60417 66600.00000 0 -10445580.251 5375542.140 -22616819.714 10 0 60417 67500.00000 0 -12676999.655 3774985.061 -21784171.832 10 0 60417 68400.00000 0 -14910662.220 2410526.783 -20527341.187 10 0 60417 69300.00000 0 -17080486.841 1298850.272 -18870787.255 10 0 60417 70200.00000 0 -19120006.056 444088.533 -16846771.152 10 0 60417 71100.00000 0 -20965028.144 -162116.702 -14494723.742 10 0 60417 72000.00000 0 -22556220.948 -540020.495 -11860471.750 10 0 60417 72900.00000 0 -23841508.612 -720670.942 -8995337.327 10 0 60417 73800.00000 0 -24778180.309 -744344.310 -5955129.155 10 0 60417 74700.00000 0 -25334622.123 -658586.974 -2799045.622 10 0 60417 75600.00000 0 -25491599.379 -515948.728 411487.592 10 0 60417 76500.00000 0 -25243035.873 -371505.142 3614021.852 10 0 60417 77400.00000 0 -24596257.925 -280275.412 6746307.261 10 0 60417 78300.00000 0 -23571693.987 -294646.268 9747507.080 10 0 60417 79200.00000 0 -22202043.599 -461911.925 12559380.629 10 0 60417 80100.00000 0 -20530951.802 -822034.673 15127411.369 10 0 60417 81000.00000 0 -18611245.777 -1405720.900 17401858.402 10 0 60417 81900.00000 0 -16502808.423 -2232893.690 19338711.553 10 0 60417 82800.00000 0 -14270178.368 -3311626.087 20900532.402 10 0 60417 83700.00000 0 -11979976.681 -4637579.592 22057166.210 10 0 60417 84600.00000 0 -9698267.137 -6193971.344 22786312.326 10 0 60417 85500.00000 0 -7487959.070 -7952071.379 23073943.418 99